APSTAR-6C

Last updated on Thu Oct 30 2025 00:02:51 GMT+0000 (Coordinated Universal Time)

1 43450U 18041A 25302.49768451 -.00000308 00000+0 00000+0 0 9996 2 43450 0.0321 333.5147 0003327 287.3985 90.3781 1.00270878 27490
UTC large
Height (km)
Speed (km/s)
/
Latitude / Longitude
Inclination (degrees)
Orbital Period (minutes)
Azimuth
Elevation
Range (km)
Doppler Factor

Next 0 passes for location: London (51.5072 / 0.1276)

Sorry there are no passes over London.